(318564) = 2005 GY117 = 2006 QA74

Discovered at Mount Lemmon on 2005-04-11 by Mt. Lemmon Survey.

Orbit

Orbit type: Main Belt

Note: WebGL enabled browser required.

epoch2023-09-13.0
epoch JD2460200.5
perihelion date2022-01-24.92432
perihelion JD2459604.42432
argument of perihelion (°)124.16616
ascending node (°)129.45152
inclination (°)2.25935
eccentricity0.0918612
perihelion distance (AU)2.3145133
Tisserand w.r.t. Jupiter3.4
ΔV w.r.t. Earth (km/sec)9.5
semimajor axis (AU)2.5486337
mean anomaly (°)144.39232
mean daily motion (°/day)0.24223820
aphelion distance (AU)2.783
period (years)4.07
P-vector [x]-0.28154868
P-vector [y]-0.89283337
P-vector [z]-0.35153794
Q-vector [x]0.95906397
Q-vector [y]-0.25021941
Q-vector [z]-0.13261430
absolute magnitude17.73
phase slope0.15
uncertainty0
referenceMPEC 2023-W66
observations used152
oppositions16
arc length (days)8281
first opposition used2001
last opposition used2023
residual rms (arc-secs)0.88
perturbers coarse indicatorM-v
perturbers precise indicator003Ek
first observation date used2001-03-19.0
last observation date used2023-11-20.0
computer nameMPCLINUX
JD of orbit computation2456909.216790
perihelion JD uncertainty (days)2.1746E-04
argument of perihelion uncertainty (°)1.6918E-04
ascending node uncertainty (°)1.6005E-04
inclination uncertainty (°)6.2542E-06
eccentricity uncertainty 4.2835E-08
perihelion distance uncertainty (AU)1.0232E-07
Minimum Orbit Intersection Distances (in AU)
for orbit epoch: 2460200.5, reference: E2023-W66
Mercury1.85016
Venus1.58905
Earth1.30001
Mars0.77109
Jupiter2.23495
Saturn6.27578
Uranus15.8814
Neptune27.1035

Observations

158 total observations over interval: 2001 03 19.37494 – 2023 11 20.374286
These data are available for download (format description).

Date (UT) J2000 RA J2000 Dec Magn Location Ref
2001 03 19.37494 14 02 59.94 -08 54 40.9 22.2 V 691 – Steward Observatory, Kitt Peak-Spacewatch MPS 178514
2001 03 19.39632 14 02 59.35 -08 54 36.1 21.8 V 691 – Steward Observatory, Kitt Peak-Spacewatch MPS 178514
2001 03 19.41804 14 02 58.76 -08 54 31.5 21.8 V 691 – Steward Observatory, Kitt Peak-Spacewatch MPS 178514
2005 04 01.21821 13 15 02.75 -04 08 07.5 20.7 V 691 – Steward Observatory, Kitt Peak-Spacewatch MPS 178514
2005 04 01.23609 13 15 01.84 -04 08 01.6 20.7 V 691 – Steward Observatory, Kitt Peak-Spacewatch MPS 178514
2005 04 01.25380 13 15 00.88 -04 07 55.2 20.7 V 691 – Steward Observatory, Kitt Peak-Spacewatch MPS 178514
2005 04 11.27633 13 06 24.76 -03 09 04.8 19.5 R G96 – Mt. Lemmon Survey MPS 131879
2005 04 11.28160 13 06 24.46 -03 09 02.9 19.8 R G96 – Mt. Lemmon Survey MPS 131879
2005 04 11.28685 13 06 24.18 -03 09 01.4 20.0 R G96 – Mt. Lemmon Survey MPS 131879
2005 04 11.29216 13 06 23.86 -03 08 59.5 19.9 R G96 – Mt. Lemmon Survey MPS 131879
2005 04 12.18825 13 05 37.66 -03 03 53.9 20.9 V 691 – Steward Observatory, Kitt Peak-Spacewatch MPS 131879
2005 04 12.20566 13 05 36.72 -03 03 47.5 20.7 V 691 – Steward Observatory, Kitt Peak-Spacewatch MPS 131879
2005 04 12.22320 13 05 35.79 -03 03 42.4 21.1 V 691 – Steward Observatory, Kitt Peak-Spacewatch MPS 131879
2005 05 11.24329 12 46 19.05 -01 12 19.1 21.5 R G96 – Mt. Lemmon Survey MPS 178514
2005 05 11.25068 12 46 18.88 -01 12 18.4 20.6 R G96 – Mt. Lemmon Survey MPS 178514
2005 05 11.25811 12 46 18.73 -01 12 17.2 21.4 R G96 – Mt. Lemmon Survey MPS 178514
2005 05 11.26558 12 46 18.48 -01 12 16.9 22.4 R G96 – Mt. Lemmon Survey MPS 178514
2006 08 21.28405 23 01 05.75 -08 09 49.3 21.2 V 691 – Steward Observatory, Kitt Peak-Spacewatch MPS 177228
2006 08 21.30135 23 01 04.91 -08 09 56.1 21.4 V 691 – Steward Observatory, Kitt Peak-Spacewatch MPS 177228
2006 08 21.31865 23 01 04.07 -08 10 02.0 21.2 V 691 – Steward Observatory, Kitt Peak-Spacewatch MPS 177228
2006 08 28.30297 22 55 21.64 -08 52 40.9 20.9 V 691 – Steward Observatory, Kitt Peak-Spacewatch MPS 177228
2006 08 28.32321 22 55 20.57 -08 52 48.4 21.1 V 691 – Steward Observatory, Kitt Peak-Spacewatch MPS 177228
2006 08 28.34046 22 55 19.66 -08 52 54.6 21.2 V 691 – Steward Observatory, Kitt Peak-Spacewatch MPS 177228
2007 12 16.22728 05 21 53.24 +20 33 32.3   291 – LPL/Spacewatch II MPS 277592
2007 12 16.23341 05 21 52.84 +20 33 32.3   291 – LPL/Spacewatch II MPS 277592
2007 12 16.23792 05 21 52.54 +20 33 32.2   291 – LPL/Spacewatch II MPS 277592
2009 02 19.41032 12 59 02.80 -03 33 05.6 21.2 V 691 – Steward Observatory, Kitt Peak-Spacewatch MPS 276510
2009 02 19.42867 12 59 02.58 -03 33 03.0 21.5 V 691 – Steward Observatory, Kitt Peak-Spacewatch MPS 276510
2009 02 19.44678 12 59 02.38 -03 32 59.9 21.9 V 691 – Steward Observatory, Kitt Peak-Spacewatch MPS 276510
2009 02 28.45164 12 56 38.08 -03 03 51.3   691 – Steward Observatory, Kitt Peak-Spacewatch MPS 278653
2009 02 28.46926 12 56 37.63 -03 03 47.0   691 – Steward Observatory, Kitt Peak-Spacewatch MPS 278653
2009 02 28.48688 12 56 37.19 -03 03 42.8   691 – Steward Observatory, Kitt Peak-Spacewatch MPS 278653
2009 03 21.21495 12 43 44.64 -01 14 47.6   691 – Steward Observatory, Kitt Peak-Spacewatch MPS 281283
2009 03 21.23259 12 43 43.72 -01 14 41.2   691 – Steward Observatory, Kitt Peak-Spacewatch MPS 281283
2009 03 21.25023 12 43 42.87 -01 14 34.4   691 – Steward Observatory, Kitt Peak-Spacewatch MPS 281283
2009 03 21.35073 12 43 37.81 -01 13 57.6 20.9 V G96 – Mt. Lemmon Survey MPS 281283
2009 03 21.35625 12 43 37.56 -01 13 55.8 20.8 V G96 – Mt. Lemmon Survey MPS 281283
2009 03 21.36176 12 43 37.27 -01 13 54.3 20.0 V G96 – Mt. Lemmon Survey MPS 281283
2009 03 21.36727 12 43 37.02 -01 13 51.2 20.4 V G96 – Mt. Lemmon Survey MPS 281283
2009 03 29.20114 12 37 01.88 -00 24 56.9   691 – Steward Observatory, Kitt Peak-Spacewatch MPS 282551
2009 03 29.21627 12 37 01.04 -00 24 51.7   691 – Steward Observatory, Kitt Peak-Spacewatch MPS 282551
2009 03 29.23139 12 37 00.22 -00 24 45.5   691 – Steward Observatory, Kitt Peak-Spacewatch MPS 282551
2009 04 30.21448 12 14 06.64 +02 03 32.1 21.2 V G96 – Mt. Lemmon Survey MPS 285678
2009 04 30.22243 12 14 06.46 +02 03 33.8 21.4 V G96 – Mt. Lemmon Survey MPS 285678
2009 04 30.23059 12 14 06.25 +02 03 33.9 21.1 V G96 – Mt. Lemmon Survey MPS 285678
2009 04 30.23882 12 14 06.07 +02 03 34.9 21.0 V G96 – Mt. Lemmon Survey MPS 285678
2010 09 14.291019 22 03 27.917 -13 43 28.21 21.20 i F51 – Pan-STARRS 1, Haleakala MPS 365516
2010 09 14.302421 22 03 27.444 -13 43 31.08 21.00 i F51 – Pan-STARRS 1, Haleakala MPS 365516
2011 12 27.20702 04 39 50.32 +19 31 45.6 21.8 V G96 – Mt. Lemmon Survey MPS 404652
2011 12 27.22450 04 39 49.39 +19 31 44.5 21.5 V G96 – Mt. Lemmon Survey MPS 404652
2011 12 27.23322 04 39 48.88 +19 31 43.7 20.6 V G96 – Mt. Lemmon Survey MPS 404652
2013 03 15.35384 12 07 19.20 +02 18 21.0 20.5 V G96 – Mt. Lemmon Survey MPS 460502
2013 03 15.35926 12 07 18.91 +02 18 23.0 20.4 V G96 – Mt. Lemmon Survey MPS 460502
2013 03 15.36474 12 07 18.62 +02 18 25.3 20.3 V G96 – Mt. Lemmon Survey MPS 460502
2013 03 15.37025 12 07 18.33 +02 18 27.3 20.7 V G96 – Mt. Lemmon Survey MPS 460502
2014 08 03.47154 21 59 15.060 -13 04 33.87 20.8 w F51 – Pan-STARRS 1, Haleakala MPS 526459
2014 08 03.48501 21 59 14.404 -13 04 38.39 20.9 w F51 – Pan-STARRS 1, Haleakala MPS 526459
2014 08 03.49845 21 59 13.736 -13 04 42.66 20.8 w F51 – Pan-STARRS 1, Haleakala MPS 526459
2014 08 03.51189 21 59 13.072 -13 04 46.83 20.9 w F51 – Pan-STARRS 1, Haleakala MPS 526459
2014 08 04.46389 21 58 28.280 -13 09 54.65 20.9 w F51 – Pan-STARRS 1, Haleakala MPS 526459
2014 08 04.47729 21 58 27.597 -13 09 59.18 20.9 w F51 – Pan-STARRS 1, Haleakala MPS 526459
2014 08 04.49068 21 58 26.937 -13 10 03.48 20.9 w F51 – Pan-STARRS 1, Haleakala MPS 526459
2014 08 26.38775 21 39 38.711 -15 10 29.80 20.8 w F51 – Pan-STARRS 1, Haleakala MPS 529560
2014 08 26.39965 21 39 38.085 -15 10 33.36 20.9 w F51 – Pan-STARRS 1, Haleakala MPS 529560
2014 08 26.41155 21 39 37.458 -15 10 36.70 21.0 w F51 – Pan-STARRS 1, Haleakala MPS 529560
2014 08 26.42344 21 39 36.829 -15 10 40.49 20.7 w F51 – Pan-STARRS 1, Haleakala MPS 529560
2014 08 27.39062 21 38 48.856 -15 15 31.18 20.8 w F51 – Pan-STARRS 1, Haleakala MPS 529560
2014 08 27.40424 21 38 48.150 -15 15 35.18 20.9 w F51 – Pan-STARRS 1, Haleakala MPS 529561
2014 08 27.41785 21 38 47.445 -15 15 39.20 20.7 w F51 – Pan-STARRS 1, Haleakala MPS 529561
2015 12 04.25499 04 31 41.49 +18 50 15.9 21.3 V G96 – Mt. Lemmon Survey MPS 656875
2015 12 04.26205 04 31 41.05 +18 50 15.3 20.8 V G96 – Mt. Lemmon Survey MPS 656875
2015 12 04.27194 04 31 40.41 +18 50 14.4 21.4 V G96 – Mt. Lemmon Survey MPS 656875
2015 12 04.27900 04 31 39.97 +18 50 13.7 21.0 V G96 – Mt. Lemmon Survey MPS 656875
2015 12 06.47277 04 29 26.267 +18 46 28.70 21.7 w F51 – Pan-STARRS 1, Haleakala MPS 659451
2015 12 06.48630 04 29 25.410 +18 46 27.23 21.7 w F51 – Pan-STARRS 1, Haleakala MPS 659451
2015 12 06.49994 04 29 24.578 +18 46 25.96 21.4 w F51 – Pan-STARRS 1, Haleakala MPS 659451
2015 12 07.46680 04 28 26.176 +18 44 48.01 21.7 w F51 – Pan-STARRS 1, Haleakala MPS 659451
2015 12 07.47808 04 28 25.478 +18 44 46.93 21.6 w F51 – Pan-STARRS 1, Haleakala MPS 659451
2015 12 07.48928 04 28 24.801 +18 44 45.90 21.7 w F51 – Pan-STARRS 1, Haleakala MPS 659451
2015 12 07.50049 04 28 24.093 +18 44 44.64 21.6 w F51 – Pan-STARRS 1, Haleakala MPS 659451
2017 02 21.44243 11 48 09.274 +03 40 37.00 21.3 w F51 – Pan-STARRS 1, Haleakala MPS 771564
2017 02 21.45444 11 48 08.805 +03 40 40.92 21.2 w F51 – Pan-STARRS 1, Haleakala MPS 771564
2017 02 21.46647 11 48 08.318 +03 40 44.89 21.1 w F51 – Pan-STARRS 1, Haleakala MPS 771564
2017 03 08.39479 11 36 42.95 +05 12 15.8 20.6 V G96 – Mt. Lemmon Survey MPS 777427
2017 03 08.39906 11 36 42.74 +05 12 16.8 20.7 V G96 – Mt. Lemmon Survey MPS 777427
2017 03 08.40334 11 36 42.48 +05 12 18.9 20.6 V G96 – Mt. Lemmon Survey MPS 777427
2017 03 08.40762 11 36 42.26 +05 12 20.9 21.2 V G96 – Mt. Lemmon Survey MPS 777427
2017 03 10.27859 11 35 05.94 +05 24 30.9 19.9 V G96 – Mt. Lemmon Survey MPS 778675
